Regional Weather Roundup
Issued by NWS Boston, MA

Current Version | Previous Version | Text Only | Print | Product List | Glossary Off
Versions: 1 2 3 4 5 6 7 8 9 10 11 12 13 14 15 16 17 18 19 20 21 22 23 24 25 26 27 28 29 30 31 32 33 34 35 36 37 38 39 40 41 42 43 44 45 46 47 48 49 50
000 ASUS41 KBOX 280710 RWRBOX REGIONAL WEATHER ROUNDUP NATIONAL WEATHER SERVICE TAUNTON MA 300 AM EDT FRI APR 28 2017 NOTE: "FAIR" INDICATES FEW OR NO CLOUDS BELOW 12,000 FEET WITH NO SIGNIFICANT WEATHER AND/OR OBSTRUCTIONS TO VISIBILITY. MAZALL-280800- EASTERN MASSACHUSETTS CITY SKY/WX TMP DP RH WIND PRES REMARKS BOSTON CLOUDY 57 56 96 S6 29.93S BEVERLY CLOUDY 56 54 93 SE6 29.92S LAWRENCE CLOUDY 60 55 83 VRB3 29.93F BEDFORD CLOUDY 59 54 83 S5 29.91S BLUE HILL N/A 57 55 93 S12G21 29.91F NORWOOD CLOUDY 59 57 93 S7 29.92S FOG MARSHFIELD CLOUDY 57 57 100 VRB6 29.94S PLYMOUTH CLOUDY 57 55 93 S7 29.95S TAUNTON CLOUDY 58 55 90 VRB5 29.93F NEW BEDFORD FOG 55 55 100 SE6 29.94S VSB 1 $$ MAZALL-280800- CAPE COD AND THE ISLANDS CITY SKY/WX TMP DP RH WIND PRES REMARKS FALMOUTH CLOUDY 54 55 100 MISG 29.96S HYANNIS CLOUDY 53 53 100 S5 29.95S FOG CHATHAM CLOUDY 52 52 100 S6 29.97F FOG PROVINCETOWN FOG 54 52 94 S8 29.96S VSB 3/4 NANTUCKET FOG 51 50 96 SE8 29.97S VSB 1/4 MARTHAS VNYRD FOG 55 54 96 SE10G20 29.95S VSB 1 $$ MAZALL-280800- CENTRAL AND WESTERN MASSACHUSETTS CITY SKY/WX TMP DP RH WIND PRES REMARKS WORCESTER FOG 55 54 96 S7 29.91F VSB 1/4 FITCHBURG CLOUDY 60 58 92 S5 29.92R ORANGE CLOUDY 57 57 100 S6 29.90S FOG SPRINGFIELD CLOUDY 59 57 94 CALM 29.89R FOG WESTFIELD CLOUDY 58 58 100 S5 29.90R FOG NORTH ADAMS PTCLDY 60 56 86 E3 29.86S PITTSFIELD CLOUDY 58 55 90 SE6 29.87S $$ RIZALL-280800- RHODE ISLAND CITY SKY/WX TMP DP RH WIND PRES REMARKS PROVIDENCE FOG 54 54 100 S7 29.93F VSB 1/2 NEWPORT FOG 54 54 100 SE7 29.93F VSB 1/2 BLOCK ISLAND FOG 54 54 100 S10 29.93S VSB 3/4 SMITHFIELD FOG 55 55 100 CALM 29.93F VSB 3/4 WESTERLY FOG 55 54 96 E3 29.93F VSB 1 $$ CTZALL-280800- CONNECTICUT CITY SKY/WX TMP DP RH WIND PRES REMARKS BRADLEY INTL DRIZZLE 58 58 100 S5 29.90R FOG HARTFORD CLOUDY 59 58 96 S3 29.90R FOG BRIDGEPORT FOG 52 51 97 E6 29.88F VSB 1/2 DANBURY CLOUDY 56 56 100 VRB3 29.89S FOG GROTON CLOUDY 53 52 96 E3 29.92S FOG NEW HAVEN FOG 54 53 97 E8 29.89S VSB 1 CHESTER FOG 55 55 100 CALM 29.91S VSB<1/4 MERIDEN CLOUDY 60 58 92 CALM 29.90R FOG WILLIMANTIC CLOUDY 59 58 96 S5 29.92R FOG OXFORD CLOUDY 55 54 94 SE5 29.90F VSB<1/4 $$ MEZ002-015-021-024-NHZ003-005-008-011-012-014-VTZ005-008-280800- NORTHERN NEW ENGLAND CITY SKY/WX TMP DP RH WIND PRES REMARKS PORTLAND ME FOG 47 46 97 E5 29.93F VSB 1/4 BANGOR ME CLOUDY 49 49 100 S5 29.94F FOG CONCORD NH CLOUDY 56 54 93 S6 29.91S MANCHESTER NH CLOUDY 58 53 84 S6 29.90S NASHUA NH CLOUDY 58 56 93 SE3 29.92R PORTSMOUTH NH CLOUDY 49 48 95 CALM 29.91F FOG JAFFREY NH CLOUDY 58 58 100 S5 29.91S FOG KEENE NH CLOUDY 60 57 89 S6 29.89F BURLINGTON VT MOCLDY 66 58 75 S15G23 29.79R MT. WASHINGTON DRZL/FOG 45 45 100 W46G53 N/A VSB 0 $$ NYZ052-076-280800- EASTERN NEW YORK CITY SKY/WX TMP DP RH WIND PRES REMARKS ALBANY CLOUDY 62 57 83 S13 29.85R NEW YORK CITY FOG 59 57 93 E5 29.86F VSB 1/4 $$ ANZALL-280800- MARINE OBSERVATIONS STATION/POSITION TIME TEMP WIND PRES VSBY WAVE AIR SEA DIR/SP/G HT/PER (UTC) (F) (DEG/KT/KT) (MB) (MI) (FT/S) BOSTON BUOY 0650 49 47 130/ 8/ 10 1012.8F 4/ 9 BUZZARDS BAY 0600 52 150/ 13/ 13 1014.2F NANTUCKET SOUND 0650 48 1014.3F 2/ 9 MASS BAY-STELLWA 0604 50 47 170/ 10/ 12 1013.0S 4/ 9 ISLE OF SHOALS 0600 48 140/ 1/ 2 1013.4F S OF BLOCK IS 0655 48 N/A 5/ 9 $$ ......................KEY......................... SKY/WX - SKY CONDITION/PRESENT WEATHER TMP - TEMPERATURE IN FAHRENHEIT DWPT - DEWPOINT IN FAHRENHEIT RH - RELATIVE HUMIDITY IN PERCENT WIND - DIRECTION AND SPEED IN MPH PRES - MEAN SEA LEVEL PRESSURE IN INCHES OF HG WCI - WIND CHILL INDEX VSB - VISIBILITY IN MILES HX - HEAT INDEX TC - TEMPERATURE IN CELSIUS VRB - VARIABLE WIND DIRECTION N/A - NOT AVAILABLE

USA.gov is the U.S. government's official web portal to all federal, state and local government web resources and services.